owner,sensor,date,latitude,longitude,vertical_datum,wind_speed,wind_to_direction,wind_speed_of_gust,qcFlag 
DISL,ioos:station:DISL:MHPA:1,2011-05-01T00:00:00Z,30.6671,-87.9365,8.5,4.59,167.1,-9999.0,'1111122,1111122,1111122' 
DISL,ioos:station:DISL:MHPA:1,2011-05-01T00:30:00Z,30.6671,-87.9365,8.5,3.8,140.4,-9999.0,'1111122,1111122,1111122' 
DISL,ioos:station:DISL:MHPA:1,2011-05-01T01:00:00Z,30.6671,-87.9365,8.5,3.9,147.6,-9999.0,'1111122,1111122,1111122' 
DISL,ioos:station:DISL:MHPA:1,2011-05-01T01:30:00Z,30.6671,-87.9365,8.5,3.4,140.1,-9999.0,'1111122,1111122,1111122' 
DISL,ioos:station:DISL:MHPA:1,2011-05-01T02:00:00Z,30.6671,-87.9365,8.5,3.12,139.6,-9999.0,'1111122,1111122,1111122' 
DISL,ioos:station:DISL:MHPA:1,2011-05-01T02:30:00Z,30.6671,-87.9365,8.5,3.71,139.1,-9999.0,'1111122,1111122,1111122' 
DISL,ioos:station:DISL:MHPA:1,2011-05-01T03:00:00Z,30.6671,-87.9365,8.5,3.27,126.0,-9999.0,'1111122,1111122,1111122' 
DISL,ioos:station:DISL:MHPA:1,2011-05-01T03:30:00Z,30.6671,-87.9365,8.5,4.52,141.6,-9999.0,'1111122,1111122,1111122' 
DISL,ioos:station:DISL:MHPA:1,2011-05-01T04:00:00Z,30.6671,-87.9365,8.5,4.59,143.9,-9999.0,'1111122,1111122,1111122' 
DISL,ioos:station:DISL:MHPA:1,2011-05-01T04:30:00Z,30.6671,-87.9365,8.5,4.56,146.0,-9999.0,'1111122,1111122,1111122' 
DISL,ioos:station:DISL:MHPA:1,2011-05-01T05:00:00Z,30.6671,-87.9365,8.5,4.7,151.8,-9999.0,'1111122,1111122,1111122' 
DISL,ioos:station:DISL:MHPA:1,2011-05-01T05:30:00Z,30.6671,-87.9365,8.5,4.08,157.6,-9999.0,'1111122,1111122,1111122' 
DISL,ioos:station:DISL:MHPA:1,2011-05-01T06:00:00Z,30.6671,-87.9365,8.5,3.03,150.4,-9999.0,'1111122,1111122,1111122' 
DISL,ioos:station:DISL:MHPA:1,2011-05-01T06:30:00Z,30.6671,-87.9365,8.5,1.66,146.0,-9999.0,'1111122,1111122,1111122' 
DISL,ioos:station:DISL:MHPA:1,2011-05-01T07:00:00Z,30.6671,-87.9365,8.5,1.44,107.0,-9999.0,'1111122,1111122,1111122' 
DISL,ioos:station:DISL:MHPA:1,2011-05-01T07:30:00Z,30.6671,-87.9365,8.5,2.3,116.8,-9999.0,'1111122,1111122,1111122' 
DISL,ioos:station:DISL:MHPA:1,2011-05-01T08:00:00Z,30.6671,-87.9365,8.5,2.12,123.1,-9999.0,'1111122,1111122,1111122' 
DISL,ioos:station:DISL:MHPA:1,2011-05-01T08:30:00Z,30.6671,-87.9365,8.5,2.24,117.7,-9999.0,'1111122,1111122,1111122' 
DISL,ioos:station:DISL:MHPA:1,2011-05-01T09:00:00Z,30.6671,-87.9365,8.5,2.63,114.9,-9999.0,'1111122,1111122,1111122' 
DISL,ioos:station:DISL:MHPA:1,2011-05-01T09:30:00Z,30.6671,-87.9365,8.5,2.87,123.2,-9999.0,'1111122,1111122,1111122' 
DISL,ioos:station:DISL:MHPA:1,2011-05-01T10:00:00Z,30.6671,-87.9365,8.5,3.85,112.7,-9999.0,'1111122,1111122,1111122' 
DISL,ioos:station:DISL:MHPA:1,2011-05-01T10:30:00Z,30.6671,-87.9365,8.5,2.61,116.8,-9999.0,'1111122,1111122,1111122' 
DISL,ioos:station:DISL:MHPA:1,2011-05-01T11:00:00Z,30.6671,-87.9365,8.5,2.34,108.7,-9999.0,'1111122,1111122,1111122' 
DISL,ioos:station:DISL:MHPA:1,2011-05-01T11:30:00Z,30.6671,-87.9365,8.5,2.99,103.6,-9999.0,'1111122,1111122,1111122' 
DISL,ioos:station:DISL:MHPA:1,2011-05-01T12:00:00Z,30.6671,-87.9365,8.5,2.32,96.9,-9999.0,'1111122,1111122,1111122' 
DISL,ioos:station:DISL:MHPA:1,2011-05-01T12:30:00Z,30.6671,-87.9365,8.5,3.04,115.8,-9999.0,'1111122,1111122,1111122' 
DISL,ioos:station:DISL:MHPA:1,2011-05-01T13:00:00Z,30.6671,-87.9365,8.5,3.12,120.2,-9999.0,'1111122,1111122,1111122' 
DISL,ioos:station:DISL:MHPA:1,2011-05-01T13:30:00Z,30.6671,-87.9365,8.5,2.93,138.7,-9999.0,'1111122,1111122,1111122' 
DISL,ioos:station:DISL:MHPA:1,2011-05-01T14:00:00Z,30.6671,-87.9365,8.5,4.01,163.9,-9999.0,'1111122,1111122,1111122' 
DISL,ioos:station:DISL:MHPA:1,2011-05-01T14:30:00Z,30.6671,-87.9365,8.5,3.47,171.3,-9999.0,'1111122,1111122,1111122' 
DISL,ioos:station:DISL:MHPA:1,2011-05-01T15:00:00Z,30.6671,-87.9365,8.5,3.81,189.9,-9999.0,'1111122,1111122,1111122' 
DISL,ioos:station:DISL:MHPA:1,2011-05-01T15:30:00Z,30.6671,-87.9365,8.5,4.19,203.6,-9999.0,'1111122,1111122,1111122' 
DISL,ioos:station:DISL:MHPA:1,2011-05-01T16:00:00Z,30.6671,-87.9365,8.5,4.5,200.8,-9999.0,'1111122,1111122,1111122' 
DISL,ioos:station:DISL:MHPA:1,2011-05-01T16:30:00Z,30.6671,-87.9365,8.5,4.41,210.6,-9999.0,'1111122,1111122,1111122' 
DISL,ioos:station:DISL:MHPA:1,2011-05-01T17:00:00Z,30.6671,-87.9365,8.5,4.35,212.2,-9999.0,'1111122,1111122,1111122' 
DISL,ioos:station:DISL:MHPA:1,2011-05-01T17:30:00Z,30.6671,-87.9365,8.5,4.6,214.3,-9999.0,'1111122,1111122,1111122' 
DISL,ioos:station:DISL:MHPA:1,2011-05-01T18:00:00Z,30.6671,-87.9365,8.5,4.4,214.3,-9999.0,'1111122,1111122,1111122' 
DISL,ioos:station:DISL:MHPA:1,2011-05-01T18:30:00Z,30.6671,-87.9365,8.5,5.3,214.7,-9999.0,'1111122,1111122,1111122' 
DISL,ioos:station:DISL:MHPA:1,2011-05-01T19:00:00Z,30.6671,-87.9365,8.5,5.52,208.7,-9999.0,'1111122,1111122,1111122' 
DISL,ioos:station:DISL:MHPA:1,2011-05-01T19:30:00Z,30.6671,-87.9365,8.5,5.91,206.9,-9999.0,'1111122,1111122,1111122' 
DISL,ioos:station:DISL:MHPA:1,2011-05-01T20:00:00Z,30.6671,-87.9365,8.5,5.68,211.9,-9999.0,'1111122,1111122,1111122' 
DISL,ioos:station:DISL:MHPA:1,2011-05-01T20:30:00Z,30.6671,-87.9365,8.5,5.57,212.6,-9999.0,'1111122,1111122,1111122' 
DISL,ioos:station:DISL:MHPA:1,2011-05-01T21:00:00Z,30.6671,-87.9365,8.5,5.64,203.9,-9999.0,'1111122,1111122,1111122' 
DISL,ioos:station:DISL:MHPA:1,2011-05-01T21:30:00Z,30.6671,-87.9365,8.5,5.43,203.3,-9999.0,'1111122,1111122,1111122' 
DISL,ioos:station:DISL:MHPA:1,2011-05-01T22:00:00Z,30.6671,-87.9365,8.5,6.1,155.1,-9999.0,'1111122,1111122,1111122' 
DISL,ioos:station:DISL:MHPA:1,2011-05-01T22:30:00Z,30.6671,-87.9365,8.5,6.19,165.5,-9999.0,'1111122,1111122,1111122' 
DISL,ioos:station:DISL:MHPA:1,2011-05-01T23:00:00Z,30.6671,-87.9365,8.5,5.72,146.3,-9999.0,'1111122,1111122,1111122' 
DISL,ioos:station:DISL:MHPA:1,2011-05-01T23:30:00Z,30.6671,-87.9365,8.5,5.78,133.0,-9999.0,'1111122,1111122,1111122' 
DISL,ioos:station:DISL:MHPA:1,2011-05-02T00:00:00Z,30.6671,-87.9365,8.5,4.84,130.4,-9999.0,'1111122,1111122,1111122' 
DISL,ioos:station:DISL:MHPA:1,2011-05-02T00:30:00Z,30.6671,-87.9365,8.5,3.78,128.7,-9999.0,'1111122,1111122,1111122' 
DISL,ioos:station:DISL:MHPA:1,2011-05-02T01:00:00Z,30.6671,-87.9365,8.5,3.89,131.4,-9999.0,'1111122,1111122,1111122' 
DISL,ioos:station:DISL:MHPA:1,2011-05-02T01:30:00Z,30.6671,-87.9365,8.5,3.42,121.5,-9999.0,'1111122,1111122,1111122' 
DISL,ioos:station:DISL:MHPA:1,2011-05-02T02:00:00Z,30.6671,-87.9365,8.5,3.49,132.2,-9999.0,'1111122,1111122,1111122' 
DISL,ioos:station:DISL:MHPA:1,2011-05-02T02:30:00Z,30.6671,-87.9365,8.5,4.33,133.5,-9999.0,'1111122,1111122,1111122' 
DISL,ioos:station:DISL:MHPA:1,2011-05-02T03:00:00Z,30.6671,-87.9365,8.5,4.6,135.8,-9999.0,'1111122,1111122,1111122' 
DISL,ioos:station:DISL:MHPA:1,2011-05-02T03:30:00Z,30.6671,-87.9365,8.5,4.54,137.1,-9999.0,'1111122,1111122,1111122' 
DISL,ioos:station:DISL:MHPA:1,2011-05-02T04:00:00Z,30.6671,-87.9365,8.5,4.31,145.3,-9999.0,'1111122,1111122,1111122' 
DISL,ioos:station:DISL:MHPA:1,2011-05-02T04:30:00Z,30.6671,-87.9365,8.5,5.36,146.7,-9999.0,'1111122,1111122,1111122' 
DISL,ioos:station:DISL:MHPA:1,2011-05-02T05:00:00Z,30.6671,-87.9365,8.5,5.29,146.6,-9999.0,'1111122,1111122,1111122' 
DISL,ioos:station:DISL:MHPA:1,2011-05-02T05:30:00Z,30.6671,-87.9365,8.5,4.44,151.1,-9999.0,'1111122,1111122,1111122' 
DISL,ioos:station:DISL:MHPA:1,2011-05-02T06:00:00Z,30.6671,-87.9365,8.5,3.65,154.7,-9999.0,'1111122,1111122,1111122' 
DISL,ioos:station:DISL:MHPA:1,2011-05-02T06:30:00Z,30.6671,-87.9365,8.5,2.95,147.1,-9999.0,'1111122,1111122,1111122' 
DISL,ioos:station:DISL:MHPA:1,2011-05-02T07:00:00Z,30.6671,-87.9365,8.5,2.41,137.6,-9999.0,'1111122,1111122,1111122' 
DISL,ioos:station:DISL:MHPA:1,2011-05-02T07:30:00Z,30.6671,-87.9365,8.5,1.39,130.0,-9999.0,'1111122,1111122,1111122' 
DISL,ioos:station:DISL:MHPA:1,2011-05-02T08:00:00Z,30.6671,-87.9365,8.5,1.2,104.7,-9999.0,'1111122,1111122,1111122' 
DISL,ioos:station:DISL:MHPA:1,2011-05-02T08:30:00Z,30.6671,-87.9365,8.5,0.38,91.1,-9999.0,'1111122,1111122,1111122' 
DISL,ioos:station:DISL:MHPA:1,2011-05-02T09:00:00Z,30.6671,-87.9365,8.5,0.95,79.6,-9999.0,'1111122,1111122,1111122' 
DISL,ioos:station:DISL:MHPA:1,2011-05-02T09:30:00Z,30.6671,-87.9365,8.5,1.3,89.8,-9999.0,'1111122,1111122,1111122' 
DISL,ioos:station:DISL:MHPA:1,2011-05-02T10:00:00Z,30.6671,-87.9365,8.5,0.66,80.3,-9999.0,'1111122,1111122,1111122' 
DISL,ioos:station:DISL:MHPA:1,2011-05-02T10:30:00Z,30.6671,-87.9365,8.5,0.93,87.6,-9999.0,'1111122,1111122,1111122' 
DISL,ioos:station:DISL:MHPA:1,2011-05-02T11:00:00Z,30.6671,-87.9365,8.5,1.04,53.22,-9999.0,'1111122,1111122,1111122' 
DISL,ioos:station:DISL:MHPA:1,2011-05-02T11:30:00Z,30.6671,-87.9365,8.5,1.79,57.36,-9999.0,'1111122,1111122,1111122' 
DISL,ioos:station:DISL:MHPA:1,2011-05-02T12:00:00Z,30.6671,-87.9365,8.5,1.08,50.98,-9999.0,'1111122,1111122,1111122' 
DISL,ioos:station:DISL:MHPA:1,2011-05-02T12:30:00Z,30.6671,-87.9365,8.5,0.84,62.67,-9999.0,'1111122,1111122,1111122' 
DISL,ioos:station:DISL:MHPA:1,2011-05-02T13:00:00Z,30.6671,-87.9365,8.5,2.28,90.4,-9999.0,'1111122,1111122,1111122' 
DISL,ioos:station:DISL:MHPA:1,2011-05-02T13:30:00Z,30.6671,-87.9365,8.5,2.12,95.9,-9999.0,'1111122,1111122,1111122' 
DISL,ioos:station:DISL:MHPA:1,2011-05-02T14:00:00Z,30.6671,-87.9365,8.5,2.81,113.1,-9999.0,'1111122,1111122,1111122' 
DISL,ioos:station:DISL:MHPA:1,2011-05-02T14:30:00Z,30.6671,-87.9365,8.5,2.98,172.2,-9999.0,'1111122,1111122,1111122' 
DISL,ioos:station:DISL:MHPA:1,2011-05-02T15:00:00Z,30.6671,-87.9365,8.5,2.27,208.0,-9999.0,'1111122,1111122,1111122' 
DISL,ioos:station:DISL:MHPA:1,2011-05-02T15:30:00Z,30.6671,-87.9365,8.5,2.41,230.9,-9999.0,'1111122,1111122,1111122' 
DISL,ioos:station:DISL:MHPA:1,2011-05-02T16:00:00Z,30.6671,-87.9365,8.5,3.08,252.4,-9999.0,'1111122,1111122,1111122' 
DISL,ioos:station:DISL:MHPA:1,2011-05-02T16:30:00Z,30.6671,-87.9365,8.5,3.52,213.2,-9999.0,'1111122,1111122,1111122' 
DISL,ioos:station:DISL:MHPA:1,2011-05-02T17:00:00Z,30.6671,-87.9365,8.5,5.14,207.7,-9999.0,'1111122,1111122,1111122' 
DISL,ioos:station:DISL:MHPA:1,2011-05-02T17:30:00Z,30.6671,-87.9365,8.5,4.86,205.3,-9999.0,'1111122,1111122,1111122' 
DISL,ioos:station:DISL:MHPA:1,2011-05-02T18:00:00Z,30.6671,-87.9365,8.5,6.1,196.5,-9999.0,'1111122,1111122,1111122' 
DISL,ioos:station:DISL:MHPA:1,2011-05-02T18:30:00Z,30.6671,-87.9365,8.5,7.25,202.1,-9999.0,'1111122,1111122,1111122' 
DISL,ioos:station:DISL:MHPA:1,2011-05-02T19:00:00Z,30.6671,-87.9365,8.5,7.29,201.3,-9999.0,'1111122,1111122,1111122' 
DISL,ioos:station:DISL:MHPA:1,2011-05-02T19:30:00Z,30.6671,-87.9365,8.5,7.53,199.3,-9999.0,'1111122,1111122,1111122' 
DISL,ioos:station:DISL:MHPA:1,2011-05-02T20:00:00Z,30.6671,-87.9365,8.5,6.68,205.1,-9999.0,'1111122,1111122,1111122' 
DISL,ioos:station:DISL:MHPA:1,2011-05-02T20:30:00Z,30.6671,-87.9365,8.5,6.56,204.2,-9999.0,'1111122,1111122,1111122' 
DISL,ioos:station:DISL:MHPA:1,2011-05-02T21:00:00Z,30.6671,-87.9365,8.5,6.39,210.8,-9999.0,'1111122,1111122,1111122' 
DISL,ioos:station:DISL:MHPA:1,2011-05-02T21:30:00Z,30.6671,-87.9365,8.5,6.49,212.7,-9999.0,'1111122,1111122,1111122' 
DISL,ioos:station:DISL:MHPA:1,2011-05-02T22:00:00Z,30.6671,-87.9365,8.5,6.58,208.2,-9999.0,'1111122,1111122,1111122' 
DISL,ioos:station:DISL:MHPA:1,2011-05-02T22:30:00Z,30.6671,-87.9365,8.5,6.03,198.1,-9999.0,'1111122,1111122,1111122' 
DISL,ioos:station:DISL:MHPA:1,2011-05-02T23:00:00Z,30.6671,-87.9365,8.5,5.41,186.7,-9999.0,'1111122,1111122,1111122' 
DISL,ioos:station:DISL:MHPA:1,2011-05-02T23:30:00Z,30.6671,-87.9365,8.5,4.95,172.6,-9999.0,'1111122,1111122,1111122' 
DISL,ioos:station:DISL:MHPA:1,2011-05-03T00:00:00Z,30.6671,-87.9365,8.5,4.41,154.3,-9999.0,'1111122,1111122,1111122' 
DISL,ioos:station:DISL:MHPA:1,2011-05-03T00:30:00Z,30.6671,-87.9365,8.5,3.75,155.5,-9999.0,'1111122,1111122,1111122' 
DISL,ioos:station:DISL:MHPA:1,2011-05-03T01:00:00Z,30.6671,-87.9365,8.5,3.09,151.4,-9999.0,'1111122,1111122,1111122' 
DISL,ioos:station:DISL:MHPA:1,2011-05-03T01:30:00Z,30.6671,-87.9365,8.5,3.56,142.7,-9999.0,'1111122,1111122,1111122' 
DISL,ioos:station:DISL:MHPA:1,2011-05-03T02:00:00Z,30.6671,-87.9365,8.5,2.86,145.6,-9999.0,'1111122,1111122,1111122' 
DISL,ioos:station:DISL:MHPA:1,2011-05-03T02:30:00Z,30.6671,-87.9365,8.5,2.71,147.1,-9999.0,'1111122,1111122,1111122' 
DISL,ioos:station:DISL:MHPA:1,2011-05-03T03:00:00Z,30.6671,-87.9365,8.5,3.09,153.7,-9999.0,'1111122,1111122,1111122' 
DISL,ioos:station:DISL:MHPA:1,2011-05-03T03:30:00Z,30.6671,-87.9365,8.5,3.44,148.1,-9999.0,'1111122,1111122,1111122' 
DISL,ioos:station:DISL:MHPA:1,2011-05-03T04:00:00Z,30.6671,-87.9365,8.5,3.47,150.4,-9999.0,'1111122,1111122,1111122' 
DISL,ioos:station:DISL:MHPA:1,2011-05-03T04:30:00Z,30.6671,-87.9365,8.5,4.77,139.7,-9999.0,'1111122,1111122,1111122' 
DISL,ioos:station:DISL:MHPA:1,2011-05-03T05:00:00Z,30.6671,-87.9365,8.5,5.14,146.1,-9999.0,'1111122,1111122,1111122' 
DISL,ioos:station:DISL:MHPA:1,2011-05-03T05:30:00Z,30.6671,-87.9365,8.5,4.51,150.4,-9999.0,'1111122,1111122,1111122' 
DISL,ioos:station:DISL:MHPA:1,2011-05-03T06:00:00Z,30.6671,-87.9365,8.5,4.17,149.6,-9999.0,'1111122,1111122,1111122' 
DISL,ioos:station:DISL:MHPA:1,2011-05-03T06:30:00Z,30.6671,-87.9365,8.5,3.42,157.9,-9999.0,'1111122,1111122,1111122' 
DISL,ioos:station:DISL:MHPA:1,2011-05-03T07:00:00Z,30.6671,-87.9365,8.5,3.81,151.8,-9999.0,'1111122,1111122,1111122' 
DISL,ioos:station:DISL:MHPA:1,2011-05-03T07:30:00Z,30.6671,-87.9365,8.5,4.41,155.6,-9999.0,'1111122,1111122,1111122' 
DISL,ioos:station:DISL:MHPA:1,2011-05-03T08:00:00Z,30.6671,-87.9365,8.5,4.87,156.8,-9999.0,'1111122,1111122,1111122' 
DISL,ioos:station:DISL:MHPA:1,2011-05-03T08:30:00Z,30.6671,-87.9365,8.5,3.51,156.4,-9999.0,'1111122,1111122,1111122' 
DISL,ioos:station:DISL:MHPA:1,2011-05-03T09:00:00Z,30.6671,-87.9365,8.5,3.05,148.1,-9999.0,'1111122,1111122,1111122' 
DISL,ioos:station:DISL:MHPA:1,2011-05-03T09:30:00Z,30.6671,-87.9365,8.5,3.43,151.7,-9999.0,'1111122,1111122,1111122' 
DISL,ioos:station:DISL:MHPA:1,2011-05-03T10:00:00Z,30.6671,-87.9365,8.5,3.13,155.3,-9999.0,'1111122,1111122,1111122' 
DISL,ioos:station:DISL:MHPA:1,2011-05-03T10:30:00Z,30.6671,-87.9365,8.5,4.97,175.7,-9999.0,'1111122,1111122,1111122' 
DISL,ioos:station:DISL:MHPA:1,2011-05-03T11:00:00Z,30.6671,-87.9365,8.5,4.31,182.3,-9999.0,'1111122,1111122,1111122' 
DISL,ioos:station:DISL:MHPA:1,2011-05-03T11:30:00Z,30.6671,-87.9365,8.5,5.09,176.8,-9999.0,'1111122,1111122,1111122' 
DISL,ioos:station:DISL:MHPA:1,2011-05-03T12:00:00Z,30.6671,-87.9365,8.5,5.13,173.4,-9999.0,'1111122,1111122,1111122' 
DISL,ioos:station:DISL:MHPA:1,2011-05-03T12:30:00Z,30.6671,-87.9365,8.5,5.31,175.6,-9999.0,'1111122,1111122,1111122' 
DISL,ioos:station:DISL:MHPA:1,2011-05-03T13:00:00Z,30.6671,-87.9365,8.5,5.08,177.8,-9999.0,'1111122,1111122,1111122' 
DISL,ioos:station:DISL:MHPA:1,2011-05-03T13:30:00Z,30.6671,-87.9365,8.5,4.47,197.9,-9999.0,'1111122,1111122,1111122' 
DISL,ioos:station:DISL:MHPA:1,2011-05-03T14:00:00Z,30.6671,-87.9365,8.5,4.76,185.5,-9999.0,'1111122,1111122,1111122' 
DISL,ioos:station:DISL:MHPA:1,2011-05-03T14:30:00Z,30.6671,-87.9365,8.5,5.46,182.4,-9999.0,'1111122,1111122,1111122' 
DISL,ioos:station:DISL:MHPA:1,2011-05-03T15:00:00Z,30.6671,-87.9365,8.5,6.08,177.5,-9999.0,'1111122,1111122,1111122' 
DISL,ioos:station:DISL:MHPA:1,2011-05-03T15:30:00Z,30.6671,-87.9365,8.5,7.06,182.0,-9999.0,'1111122,1111122,1111122' 
DISL,ioos:station:DISL:MHPA:1,2011-05-03T16:00:00Z,30.6671,-87.9365,8.5,7.39,180.0,-9999.0,'1111122,1111122,1111122' 
DISL,ioos:station:DISL:MHPA:1,2011-05-03T16:30:00Z,30.6671,-87.9365,8.5,7.09,180.6,-9999.0,'1111122,1111122,1111122' 
DISL,ioos:station:DISL:MHPA:1,2011-05-03T17:00:00Z,30.6671,-87.9365,8.5,7.05,179.0,-9999.0,'1111122,1111122,1111122' 
DISL,ioos:station:DISL:MHPA:1,2011-05-03T17:30:00Z,30.6671,-87.9365,8.5,5.36,276.7,-9999.0,'1111122,1111122,1111122' 
DISL,ioos:station:DISL:MHPA:1,2011-05-03T18:00:00Z,30.6671,-87.9365,8.5,3.61,16.3,-9999.0,'1111122,1111122,1111122' 
DISL,ioos:station:DISL:MHPA:1,2011-05-03T18:30:00Z,30.6671,-87.9365,8.5,3.85,357.0,-9999.0,'1111122,1111122,1111122' 
DISL,ioos:station:DISL:MHPA:1,2011-05-03T19:00:00Z,30.6671,-87.9365,8.5,5.28,5.07,-9999.0,'1111122,1111122,1111122' 
DISL,ioos:station:DISL:MHPA:1,2011-05-03T19:30:00Z,30.6671,-87.9365,8.5,6.46,337.7,-9999.0,'1111122,1111122,1111122' 
DISL,ioos:station:DISL:MHPA:1,2011-05-03T20:00:00Z,30.6671,-87.9365,8.5,5.14,359.5,-9999.0,'1111122,1111122,1111122' 
DISL,ioos:station:DISL:MHPA:1,2011-05-03T20:30:00Z,30.6671,-87.9365,8.5,5.77,350.5,-9999.0,'1111122,1111122,1111122' 
DISL,ioos:station:DISL:MHPA:1,2011-05-03T21:00:00Z,30.6671,-87.9365,8.5,5.79,347.3,-9999.0,'1111122,1111122,1111122' 
DISL,ioos:station:DISL:MHPA:1,2011-05-03T21:30:00Z,30.6671,-87.9365,8.5,5.66,0.852,-9999.0,'1111122,1111122,1111122' 
DISL,ioos:station:DISL:MHPA:1,2011-05-03T22:00:00Z,30.6671,-87.9365,8.5,5.4,339.4,-9999.0,'1111122,1111122,1111122' 
DISL,ioos:station:DISL:MHPA:1,2011-05-03T22:30:00Z,30.6671,-87.9365,8.5,5.54,2.042,-9999.0,'1111122,1111122,1111122' 
DISL,ioos:station:DISL:MHPA:1,2011-05-03T23:00:00Z,30.6671,-87.9365,8.5,6.62,343.6,-9999.0,'1111122,1111122,1111122' 
DISL,ioos:station:DISL:MHPA:1,2011-05-03T23:30:00Z,30.6671,-87.9365,8.5,5.75,355.8,-9999.0,'1111122,1111122,1111122' 
DISL,ioos:station:DISL:MHPA:1,2011-05-04T00:00:00Z,30.6671,-87.9365,8.5,7.0,350.2,-9999.0,'1111122,1111122,1111122' 
DISL,ioos:station:DISL:MHPA:1,2011-05-04T00:30:00Z,30.6671,-87.9365,8.5,6.08,346.9,-9999.0,'1111122,1111122,1111122' 
DISL,ioos:station:DISL:MHPA:1,2011-05-04T01:00:00Z,30.6671,-87.9365,8.5,4.47,354.6,-9999.0,'1111122,1111122,1111122' 
DISL,ioos:station:DISL:MHPA:1,2011-05-04T01:30:00Z,30.6671,-87.9365,8.5,6.04,19.3,-9999.0,'1111122,1111122,1111122' 
DISL,ioos:station:DISL:MHPA:1,2011-05-04T02:00:00Z,30.6671,-87.9365,8.5,5.08,354.6,-9999.0,'1111122,1111122,1111122' 
DISL,ioos:station:DISL:MHPA:1,2011-05-04T02:30:00Z,30.6671,-87.9365,8.5,3.96,11.18,-9999.0,'1111122,1111122,1111122' 
DISL,ioos:station:DISL:MHPA:1,2011-05-04T03:00:00Z,30.6671,-87.9365,8.5,3.69,20.65,-9999.0,'1111122,1111122,1111122' 
DISL,ioos:station:DISL:MHPA:1,2011-05-04T03:30:00Z,30.6671,-87.9365,8.5,4.38,18.16,-9999.0,'1111122,1111122,1111122' 
DISL,ioos:station:DISL:MHPA:1,2011-05-04T04:00:00Z,30.6671,-87.9365,8.5,4.8,42.66,-9999.0,'1111122,1111122,1111122' 
DISL,ioos:station:DISL:MHPA:1,2011-05-04T04:30:00Z,30.6671,-87.9365,8.5,5.52,15.78,-9999.0,'1111122,1111122,1111122' 
DISL,ioos:station:DISL:MHPA:1,2011-05-04T05:00:00Z,30.6671,-87.9365,8.5,5.95,7.72,-9999.0,'1111122,1111122,1111122' 
DISL,ioos:station:DISL:MHPA:1,2011-05-04T05:30:00Z,30.6671,-87.9365,8.5,5.36,14.8,-9999.0,'1111122,1111122,1111122' 
DISL,ioos:station:DISL:MHPA:1,2011-05-04T06:00:00Z,30.6671,-87.9365,8.5,4.42,10.95,-9999.0,'1111122,1111122,1111122' 
DISL,ioos:station:DISL:MHPA:1,2011-05-04T06:30:00Z,30.6671,-87.9365,8.5,4.67,7.73,-9999.0,'1111122,1111122,1111122' 
DISL,ioos:station:DISL:MHPA:1,2011-05-04T07:00:00Z,30.6671,-87.9365,8.5,3.97,1.22,-9999.0,'1111122,1111122,1111122' 
DISL,ioos:station:DISL:MHPA:1,2011-05-04T07:30:00Z,30.6671,-87.9365,8.5,3.46,0.2,-9999.0,'1111122,1111122,1111122' 
DISL,ioos:station:DISL:MHPA:1,2011-05-04T08:00:00Z,30.6671,-87.9365,8.5,3.36,8.78,-9999.0,'1111122,1111122,1111122' 
DISL,ioos:station:DISL:MHPA:1,2011-05-04T08:30:00Z,30.6671,-87.9365,8.5,2.85,6.585,-9999.0,'1111122,1111122,1111122' 
DISL,ioos:station:DISL:MHPA:1,2011-05-04T09:00:00Z,30.6671,-87.9365,8.5,3.58,16.08,-9999.0,'1111122,1111122,1111122' 
DISL,ioos:station:DISL:MHPA:1,2011-05-04T09:30:00Z,30.6671,-87.9365,8.5,4.34,359.9,-9999.0,'1111122,1111122,1111122' 
DISL,ioos:station:DISL:MHPA:1,2011-05-04T10:00:00Z,30.6671,-87.9365,8.5,3.93,3.258,-9999.0,'1111122,1111122,1111122' 
DISL,ioos:station:DISL:MHPA:1,2011-05-04T10:30:00Z,30.6671,-87.9365,8.5,3.25,4.58,-9999.0,'1111122,1111122,1111122' 
DISL,ioos:station:DISL:MHPA:1,2011-05-04T11:00:00Z,30.6671,-87.9365,8.5,2.82,9.44,-9999.0,'1111122,1111122,1111122' 
DISL,ioos:station:DISL:MHPA:1,2011-05-04T11:30:00Z,30.6671,-87.9365,8.5,2.74,4.962,-9999.0,'1111122,1111122,1111122' 
DISL,ioos:station:DISL:MHPA:1,2011-05-04T12:00:00Z,30.6671,-87.9365,8.5,3.72,6.213,-9999.0,'1111122,1111122,1111122' 
DISL,ioos:station:DISL:MHPA:1,2011-05-04T12:30:00Z,30.6671,-87.9365,8.5,3.9,3.808,-9999.0,'1111122,1111122,1111122' 
DISL,ioos:station:DISL:MHPA:1,2011-05-04T13:00:00Z,30.6671,-87.9365,8.5,3.23,12.51,-9999.0,'1111122,1111122,1111122' 
DISL,ioos:station:DISL:MHPA:1,2011-05-04T13:30:00Z,30.6671,-87.9365,8.5,3.59,5.682,-9999.0,'1111122,1111122,1111122' 
DISL,ioos:station:DISL:MHPA:1,2011-05-04T14:00:00Z,30.6671,-87.9365,8.5,3.52,13.0,-9999.0,'1111122,1111122,1111122' 
DISL,ioos:station:DISL:MHPA:1,2011-05-04T14:30:00Z,30.6671,-87.9365,8.5,4.69,13.76,-9999.0,'1111122,1111122,1111122' 
DISL,ioos:station:DISL:MHPA:1,2011-05-04T15:00:00Z,30.6671,-87.9365,8.5,4.5,25.56,-9999.0,'1111122,1111122,1111122' 
DISL,ioos:station:DISL:MHPA:1,2011-05-04T15:30:00Z,30.6671,-87.9365,8.5,5.33,19.14,-9999.0,'1111122,1111122,1111122' 
DISL,ioos:station:DISL:MHPA:1,2011-05-04T16:00:00Z,30.6671,-87.9365,8.5,4.8,29.54,-9999.0,'1111122,1111122,1111122' 
DISL,ioos:station:DISL:MHPA:1,2011-05-04T16:30:00Z,30.6671,-87.9365,8.5,5.43,16.25,-9999.0,'1111122,1111122,1111122' 
DISL,ioos:station:DISL:MHPA:1,2011-05-04T17:00:00Z,30.6671,-87.9365,8.5,4.95,28.19,-9999.0,'1111122,1111122,1111122' 
DISL,ioos:station:DISL:MHPA:1,2011-05-04T17:30:00Z,30.6671,-87.9365,8.5,4.63,18.13,-9999.0,'1111122,1111122,1111122' 
DISL,ioos:station:DISL:MHPA:1,2011-05-04T18:00:00Z,30.6671,-87.9365,8.5,4.87,14.91,-9999.0,'1111122,1111122,1111122' 
DISL,ioos:station:DISL:MHPA:1,2011-05-04T18:30:00Z,30.6671,-87.9365,8.5,5.08,355.5,-9999.0,'1111122,1111122,1111122' 
DISL,ioos:station:DISL:MHPA:1,2011-05-04T19:00:00Z,30.6671,-87.9365,8.5,4.68,2.503,-9999.0,'1111122,1111122,1111122' 
DISL,ioos:station:DISL:MHPA:1,2011-05-04T19:30:00Z,30.6671,-87.9365,8.5,5.01,351.9,-9999.0,'1111122,1111122,1111122' 
DISL,ioos:station:DISL:MHPA:1,2011-05-04T20:00:00Z,30.6671,-87.9365,8.5,5.5,358.3,-9999.0,'1111122,1111122,1111122' 
DISL,ioos:station:DISL:MHPA:1,2011-05-04T20:30:00Z,30.6671,-87.9365,8.5,4.68,355.2,-9999.0,'1111122,1111122,1111122' 
DISL,ioos:station:DISL:MHPA:1,2011-05-04T21:00:00Z,30.6671,-87.9365,8.5,5.47,350.6,-9999.0,'1111122,1111122,1111122' 
DISL,ioos:station:DISL:MHPA:1,2011-05-04T21:30:00Z,30.6671,-87.9365,8.5,5.05,345.4,-9999.0,'1111122,1111122,1111122' 
DISL,ioos:station:DISL:MHPA:1,2011-05-04T22:00:00Z,30.6671,-87.9365,8.5,5.23,351.6,-9999.0,'1111122,1111122,1111122' 
DISL,ioos:station:DISL:MHPA:1,2011-05-04T22:30:00Z,30.6671,-87.9365,8.5,4.66,7.43,-9999.0,'1111122,1111122,1111122' 
DISL,ioos:station:DISL:MHPA:1,2011-05-04T23:00:00Z,30.6671,-87.9365,8.5,4.56,355.4,-9999.0,'1111122,1111122,1111122' 
DISL,ioos:station:DISL:MHPA:1,2011-05-04T23:30:00Z,30.6671,-87.9365,8.5,3.83,354.1,-9999.0,'1111122,1111122,1111122' 
DISL,ioos:station:DISL:MHPA:1,2011-05-05T00:00:00Z,30.6671,-87.9365,8.5,4.08,3.806,-9999.0,'1111122,1111122,1111122' 
DISL,ioos:station:DISL:MHPA:1,2011-05-05T00:30:00Z,30.6671,-87.9365,8.5,3.15,1.892,-9999.0,'1111122,1111122,1111122' 
DISL,ioos:station:DISL:MHPA:1,2011-05-05T01:00:00Z,30.6671,-87.9365,8.5,1.93,12.28,-9999.0,'1111122,1111122,1111122' 
DISL,ioos:station:DISL:MHPA:1,2011-05-05T01:30:00Z,30.6671,-87.9365,8.5,1.16,31.23,-9999.0,'1111122,1111122,1111122' 
DISL,ioos:station:DISL:MHPA:1,2011-05-05T02:00:00Z,30.6671,-87.9365,8.5,1.28,7.34,-9999.0,'1111122,1111122,1111122' 
DISL,ioos:station:DISL:MHPA:1,2011-05-05T02:30:00Z,30.6671,-87.9365,8.5,0.97,29.53,-9999.0,'1111122,1111122,1111122' 
DISL,ioos:station:DISL:MHPA:1,2011-05-05T03:00:00Z,30.6671,-87.9365,8.5,1.31,29.44,-9999.0,'1111122,1111122,1111122' 
DISL,ioos:station:DISL:MHPA:1,2011-05-05T03:30:00Z,30.6671,-87.9365,8.5,1.26,19.82,-9999.0,'1111122,1111122,1111122' 
DISL,ioos:station:DISL:MHPA:1,2011-05-05T04:00:00Z,30.6671,-87.9365,8.5,0.93,12.12,-9999.0,'1111122,1111122,1111122' 
DISL,ioos:station:DISL:MHPA:1,2011-05-05T04:30:00Z,30.6671,-87.9365,8.5,1.12,10.75,-9999.0,'1111122,1111122,1111122' 